Hamilton Airport, Ontario

6:49 AM EDT on September 24, 2017 (GMT -0400)
Hamilton Airport

Weather History for CYHM - October, 2013

Change the Weather History Date:

Thursday, October 24, 2013

  Actual Average Record
Temperature  
Mean Temperature 38 °F -  
Max Temperature 46 °F 47 °F 66 °F (1998)
Min Temperature 29 °F 34 °F 26 °F (2002)
Degree Days  
Heating Degree Days 28    
Moisture  
Dew Point 32 °F    
Average Humidity 85    
Maximum Humidity 93    
Minimum Humidity 45    
Precipitation  
Precipitation 0.03 in 0.10 in - ()
Sea Level Pressure  
Sea Level Pressure 29.92 in    
Wind  
Wind Speed 10 mph ()    
Max Wind Speed 20 mph    
Max Gust Speed 29 mph    
Visibility 15.0 miles    
Events Rain    
Averages and records for this station are not official NWS values.
T = Trace of Precipitation, MM = Missing Value Source: Averaged Metar Reports

Daily Weather History Graph

Daily Weather History Graph

Search for Another Location

Airport or City:

Trip Planner

Search our weather history database for the weather conditions in past years. The results will help you decide how hot, cold, wet, or windy it might be!

Date:

Astronomy

Oct. 24, 2013 Rise Set
Actual Time 7:44 AM EDT 6:22 PM EDT
Civil Twilight 7:15 AM EDT 6:51 PM EDT
Nautical Twilight 6:42 AM EDT 7:24 PM EDT
Astronomical Twilight 6:09 AM EDT 7:57 PM EDT
Moon 10:42 PM EDT 12:48 PM EDT
Length of Visible Light 11h 35m
Length of Day
10h 37m
Waning Gibbous, 71% of the Moon is Illuminated
Oct 24
Waning Gibbous
Oct 26
Last Quarter
Nov 3
New
Nov 10
First Quarter
Nov 17
Full

Hourly Weather History & Observations

Time (EDT) Temp. Windchill Dew Point Humidity Pressure Visibility Wind Dir Wind Speed Gust Speed Precip Events Conditions
12:00 AM 32.0 °F 25.6 °F 28.4 °F 87% 29.84 in 15.0 mi WSW 6.9 mph - N/A   Scattered Clouds
1:00 AM 30.2 °F 24.3 °F 28.4 °F 93% 29.83 in 15.0 mi SSW 5.8 mph - N/A   Scattered Clouds
2:00 AM 29 °F - 28 °F 92% 29.84 in 15 mi WSW 5.8 mph - -   Scattered Clouds
2:00 AM 30.2 °F 24.3 °F 26.6 °F 86% 29.84 in 15.0 mi WSW 5.8 mph - N/A   Partly Cloudy
3:00 AM 30.2 °F 22.6 °F 28.4 °F 93% 29.83 in 15.0 mi West 8.1 mph - N/A   Partly Cloudy
4:00 AM 32.0 °F 24.8 °F 28.4 °F 87% 29.83 in 15.0 mi WSW 8.1 mph - N/A   Partly Cloudy
5:00 AM 30.2 °F 21.3 °F 28.4 °F 93% 29.83 in 15.0 mi WSW 10.4 mph - N/A   Partly Cloudy
6:00 AM 32.0 °F 23.6 °F 30.2 °F 93% 29.85 in 15.0 mi West 10.4 mph - N/A   Partly Cloudy
7:00 AM 32.0 °F 23.6 °F 30.2 °F 93% 29.86 in 15.0 mi WSW 10.4 mph - N/A   Partly Cloudy
8:00 AM 32 °F - 30 °F 90% 29.86 in 15 mi WSW 11.5 mph - -   Scattered Clouds
8:00 AM 32.0 °F 23.0 °F 30.2 °F 93% 29.86 in 15.0 mi WSW 11.5 mph - N/A   Partly Cloudy
9:00 AM 33.8 °F 24.3 °F 32.0 °F 93% 29.88 in 15.0 mi WSW 13.8 mph - N/A   Partly Cloudy
10:00 AM 37.4 °F 28.5 °F 33.8 °F 87% 29.89 in 15.0 mi West 15.0 mph 21.9 mph N/A   Mostly Cloudy
11:00 AM 41.0 °F 31.9 °F 32.0 °F 70% 29.89 in 15.0 mi West 19.6 mph 28.8 mph N/A   Scattered Clouds
12:00 PM 42.8 °F 34.3 °F 32.0 °F 66% 29.90 in 15.0 mi West 19.6 mph 26.5 mph N/A   Mostly Cloudy
1:00 PM 44.6 °F 36.9 °F 30.2 °F 57% 29.90 in 15.0 mi West 18.4 mph 25.3 mph N/A   Mostly Cloudy
2:00 PM 44 °F - 30 °F 45% 29.90 in 15 mi West 18.4 mph - -   Overcast
2:00 PM 44.6 °F 37.2 °F 30.2 °F 57% 29.90 in 15.0 mi West 17.3 mph 28.8 mph N/A   Overcast
2:04 PM 44.6 °F 36.9 °F 30.2 °F 57% 29.90 in 15.0 mi West 18.4 mph 28.8 mph N/A Rain Light Rain Showers
3:00 PM 39.2 °F 29.8 °F 35.6 °F 87% 29.93 in 15.0 mi West 18.4 mph 26.5 mph N/A Rain Light Rain Showers
3:49 PM 37.4 °F 27.8 °F 35.6 °F 93% 29.95 in 15.0 mi West 17.3 mph 24.2 mph N/A Rain Light Rain Showers
4:00 PM 37.4 °F 28.5 °F 35.6 °F 93% 29.95 in 15.0 mi West 15.0 mph 25.3 mph N/A Rain Light Rain Showers
4:48 PM 37.4 °F 28.5 °F 35.6 °F 93% 29.97 in 15.0 mi West 15.0 mph 20.7 mph N/A   Mostly Cloudy
5:00 PM 37.4 °F 28.9 °F 35.6 °F 93% 29.97 in 15.0 mi West 13.8 mph 21.9 mph N/A Rain Light Rain Showers
5:21 PM 37.4 °F 29.3 °F 35.6 °F 93% 29.98 in 15.0 mi West 12.7 mph 20.7 mph N/A Rain Light Rain Showers
6:00 PM 37.4 °F 28.9 °F 35.6 °F 93% 29.98 in 15.0 mi WSW 13.8 mph - N/A   Mostly Cloudy
7:00 PM 35.6 °F 28.0 °F 33.8 °F 93% 30.01 in 15.0 mi WSW 10.4 mph - N/A   Mostly Cloudy
8:00 PM 36 °F - 34 °F 88% 30.03 in 15 mi West 9.2 mph - -   Partly Cloudy
8:00 PM 35.6 °F 28.6 °F 33.8 °F 93% 30.03 in 15.0 mi West 9.2 mph - N/A   Mostly Cloudy
9:00 PM 35.6 °F 29.2 °F 33.8 °F 93% 30.04 in 15.0 mi WSW 8.1 mph - N/A   Mostly Cloudy
10:00 PM 35.6 °F 28.6 °F 33.8 °F 93% 30.05 in 15.0 mi WSW 9.2 mph - N/A   Overcast
11:00 PM 35.6 °F 28.0 °F 33.8 °F 93% 30.05 in 15.0 mi WSW 10.4 mph - N/A   Mostly Cloudy